Flag for Finland

Past Weather in Kuopio, Finland — Yesterday and Last 2 Weeks

Now
55 °F

Scattered showers. Cloudy.


Feels Like: 53 °F
Forecast: 64 / 54 °F
Wind: 8 mph from Northwest

Location: Kuopio Airport

Current Time: Jul 12, 2020 at 11:44:20 pm

Latest Report: Jul 12, 2020 at 10:50 pm


Visibility: N/A

Pressure: 29.95 "Hg

Humidity: 82%

Dew Point: 50 °F

Location of KuopioLocation

Past Weather in Kuopio — Graph

°F

Kuopio Temperature Yesterday

Maximum temperature yesterday: 63 °F (at 12:20 pm)
Minimum temperature yesterday: 50 °F (at 1:20 am)
Average temperature yesterday: 56 °F

High & Low Weather Summary for the Past Weeks

 TemperatureHumidityPressure
High70 °F (Jun 29, 1:20 pm)100% (Jun 30, 7:50 am)30.01 "Hg (Jun 30, 7:50 am)
Low50 °F (Jul 9, 2:20 am)32% (Jul 2, 7:50 pm)28.82 "Hg (Jun 30, 9:20 pm)
Average59 °F72%29.61 "Hg
* Reported Jun 27 10:50 pm — Jul 12 10:20 pm, Kuopio. Weather by CustomWeather, © 2020

Note: Actual official high and low records may vary slightly from our data, if they occured in-between our weather recording intervals... More about our weather records

Kuopio Weather History for the Previous 24 Hours

Scroll right to see more
 ConditionsComfort  
Time TempWeatherWind HumidityBarometerVisibility
10:20 pm
Sun, Jul 12
57 °FScattered showers. Cloudy.7 mph72%29.95 "HgN/A
9:50 pm57 °FScattered showers. Cloudy.8 mph72%29.92 "HgN/A
9:20 pm61 °FThundershowers. Cloudy.7 mph63%29.92 "HgN/A
8:50 pm63 °FScattered showers. Cloudy.7 mph56%29.92 "HgN/A
8:20 pm63 °FThunderstorms. Cloudy.5 mph59%29.92 "HgN/A
7:50 pm64 °FScattered showers. Cloudy.6 mph52%29.92 "HgN/A
7:20 pm68 °FScattered showers. Cloudy.7 mph46%29.92 "HgN/A
6:50 pm68 °FPassing clouds.6 mph46%29.92 "HgN/A
6:20 pm68 °FPassing clouds.6 mph46%29.92 "HgN/A
5:50 pm68 °FPassing clouds.6 mph46%29.92 "HgN/A
5:20 pm66 °FPassing clouds.7 mph49%29.92 "HgN/A
4:50 pm68 °FPassing clouds.9 mph46%29.92 "HgN/A
4:20 pm66 °FPassing clouds.7 mph46%29.92 "HgN/A
3:50 pm68 °FPassing clouds.6 mph49%29.92 "HgN/A
3:20 pm66 °FPassing clouds.5 mph49%29.92 "HgN/A
2:50 pm66 °FPartly sunny.6 mph49%29.95 "HgN/A
2:20 pm66 °FScattered clouds.7 mph49%29.92 "HgN/A
1:50 pm64 °FPartly sunny.5 mph49%29.95 "HgN/A
1:20 pm64 °FScattered clouds.5 mph49%29.95 "HgN/A
12:50 pm64 °FPassing clouds.8 mph52%29.95 "HgN/A
12:20 pm64 °FPassing clouds.7 mph52%29.95 "HgN/A
11:50 am63 °FPassing clouds.5 mph56%29.92 "HgN/A
11:20 am64 °FPassing clouds.5 mph60%29.92 "HgN/A
10:50 am63 °FPassing clouds.5 mph59%29.92 "HgN/A
10:20 am63 °FPassing clouds.7 mph64%29.92 "HgN/A
9:50 am63 °FPassing clouds.6 mph68%29.92 "HgN/A
9:20 am61 °FPassing clouds.6 mph72%29.89 "HgN/A
8:50 am59 °FPassing clouds.6 mph77%29.89 "HgN/A
8:20 am59 °FPassing clouds.7 mph77%29.89 "HgN/A
7:50 am57 °FSunny.7 mph82%29.89 "Hg10 mi
7:20 am55 °FSunny.8 mph82%29.89 "Hg10 mi
6:50 am55 °FSunny.7 mph82%29.86 "Hg10 mi
6:20 am54 °FSunny.7 mph88%29.86 "Hg10 mi
5:50 am52 °FSunny.7 mph88%29.86 "Hg10 mi
5:20 am52 °FSunny.5 mph88%29.83 "Hg10 mi
4:50 am52 °FSunny.7 mph88%29.83 "Hg10 mi
4:20 am52 °FSunny.8 mph88%29.83 "Hg10 mi
3:50 am52 °FSunny.7 mph88%29.80 "Hg10 mi
3:20 am52 °FClear.8 mph88%29.80 "Hg10 mi
2:50 am54 °FPassing clouds.6 mph82%29.80 "HgN/A
2:20 am54 °FPassing clouds.7 mph82%29.80 "HgN/A
1:50 am54 °FClear.7 mph82%29.77 "Hg10 mi
1:20 am54 °FClear.7 mph82%29.77 "Hg10 mi
12:50 am54 °FClear.8 mph88%29.77 "Hg10 mi
12:20 am54 °FClear.5 mph88%29.74 "Hg10 mi
11:50 pm
Sat, Jul 11
55 °FClear.7 mph88%29.74 "Hg10 mi
11:20 pm55 °FClear.8 mph94%29.71 "Hg10 mi
Weather by CustomWeather, © 2020

See weather overview